This demonstration page uses our WeatherBlox Daily Observations layout. Learn more.

Left ArrowRight Arrow

36.17497, -115.13722

Hourly Observations for January 11, 2019

Temp ( °F °C ) Dew Point ( °F °C ) Humidity (%) Winds ( mph kmh ) Pressure ( in mb ) Visibility ( mi km ) Precip ( " mm )
12:53 am 00:53 Clear 46 7.8 34 1.1 63 63 S 5 7 30.16 1021 10 16.0934 0 0
1:53 am 01:53 Clear 47 8.3 35 1.7 63 63 NW 3 6 30.19 1022 10 16.0934 0 0
2:53 am 02:53 Clear 44 6.7 32 0 63 63 NW 8 13 30.18 1022 10 16.0934 0 0
3:53 am 03:53 Clear 43 6.1 32 0 65 65 WNW 10 17 30.17 1022 10 16.0934 0 0
4:53 am 04:53 Clear 42 5.6 31 -0.6 65 65 WNW 7 11 30.18 1022 10 16.0934 0 0
5:53 am 05:53 Clear 40 4.4 30 -1.1 68 68 E 3 6 30.19 1022 10 16.0934 0 0
6:53 am 06:53 Sunny 41 5 30 -1.1 65 65 NW 5 7 30.19 1022 10 16.0934 0 0
7:53 am 07:53 Sunny 43 6.1 31 -0.6 63 63 WNW 3 6 30.21 1023 10 16.0934 0 0
8:53 am 08:53 Sunny 51 10.6 31 -0.6 46 46 Calm 30.23 1024 10 16.0934 0 0
9:53 am 09:53 Sunny 54 12.2 30 -1.1 40 40 Calm 30.22 1024 10 16.0934 0 0
10:53 am 10:53 Sunny 55 12.8 32 0 42 42 SE 3 6 30.21 1023 10 16.0934 0 0
11:53 am 11:53 Sunny 56 13.3 31 -0.6 39 39 SE 3 6 30.18 1022 10 16.0934 0 0
12:53 pm 12:53 Sunny 57 13.9 31 -0.6 37 37 Calm 30.16 1021 10 16.0934 0 0
1:53 pm 13:53 Sunny 58 14.4 30 -1.1 35 35 VRB 5 7 30.14 1021 10 16.0934 0 0
2:53 pm 14:53 undefined 58 14.4 30 -1.1 35 35 Calm 30.16 1021 N/A 0 0
3:53 pm 15:53 Sunny 58 14.4 30 -1.1 35 35 Calm 30.15 1021 10 16.0934 0 0
4:53 pm 16:53 Clear 56 13.3 29 -1.7 36 36 SE 5 7 30.16 1021 10 16.0934 0 0
5:53 pm 17:53 Clear 56 13.3 28 -2.2 34 34 Calm 30.15 1021 10 16.0934 0 0
6:53 pm 18:53 Clear 55 12.8 29 -1.7 37 37 Calm 30.15 1021 10 16.0934 0 0
7:53 pm 19:53 Clear 53 11.7 31 -0.6 43 43 SW 5 7 30.15 1021 10 16.0934 0 0
8:53 pm 20:53 Clear 52 11.1 31 -0.6 45 45 Calm 30.15 1021 10 16.0934 0 0
9:53 pm 21:53 Clear 49 9.4 31 -0.6 50 50 SSW 5 7 30.15 1021 10 16.0934 0 0
10:53 pm 22:53 Clear 48 8.9 29 -1.7 48 48 S 5 7 30.14 1021 10 16.0934 0 0
11:53 pm 23:53 Clear 48 8.9 28 -2.2 46 46 SW 5 7 30.12 1020 10 16.0934 0 0

Powered by AerisWeather